Location: Carri�res
(48.9069°N, 2.1792°E)
Time: 13:01:27
(UTC+00:00)

CSL-04 Debris - Pass Details

Date: 17 January 2021
Orbit: 827 x 847 km, 98.9° (Epoch: 25 February)

Event Time Altitude Azimuth Distance (km) Brightness Sun altitude
Rises 18:27:40 0° 154° (SSE) 3,364 7.2 -19.6°
Reaches altitude 10° 18:30:01 10° 152° (SSE) 2,432 6.4 -19.9°
Maximum altitude 18:35:22 68° 71° (ENE) 893 4.0 -20.8°
Drops below altitude 10° 18:40:43 10° 349° (N) 2,443 6.6 -21.7°
Sets 18:43:05 0° 347° (NNW) 3,381 7.4 -22.1°
